Location: Artiguedieu
(43.5000°N, 0.5454°E)
Time: 20:01:44
(UTC+00:00)

Vanguard 1 - Pass Details

Date: 28 July 2021
Orbit: 652 x 3831 km, 34.3° (Epoch: 19 September)

Event Time Altitude Azimuth Distance (km) Brightness Sun altitude
Rises 18:44:52 0° 268° (W) 5,629 15.4 5.8°
Reaches altitude 10° 18:50:04 10° 251° (WSW) 5,181 14.6 4.9°
Maximum altitude 18:59:00 18° 216° (SW) 5,341 14.0 3.4°
Drops below altitude 10° 19:10:17 10° 183° (S) 6,648 14.1 1.5°
Sets 19:18:59 0° 167° (SSE) 7,927 14.3 0.1°
